Западная Двина

Россия / Тверская область     56°15′34″N   32°04′16″E
темп.,
°C
ветер,
м/с
пор.,
м/с
влажн.,
%
обл.,
%
осадки,
мм/ч
давл.,
гПа
погр.,
м
9 мая, вс
вс900:00+2сз41185100 0.0 1011542
03:00+1сз41194100 0.0 1013614
06:000зсз3119319 0.0 1015487
09:00+6сз58595 0.0 1017857
12:00+10сз574280 0.0 10182132
15:00+11сз57325 0.0 10192409
18:00+11ссз36385 0.0 10202107
21:00+5з11629 0.0 102310
10 мая, пн
пн1000:00+3зюз11755 0.0 102510
03:00+2ююз11805 0.0 102610
06:00+3ю25765 0.0 102796
09:00+10ю464972 0.0 1027535
12:00+14ююз454397 0.0 10271217
15:00+16юз344467 0.0 10261300
18:00+16ююз33515 0.0 10261115
21:00+10ю22775 0.0 102827
11 мая, вт
вт1100:00+7ю22865 0.0 102814
03:00+6ююв22895 0.0 102929
06:00+6юв23835 0.0 103067
09:00+13юв355376 0.0 1029488
12:00+17вюв454174 0.0 10281114
15:00+19вюв453516 0.0 10271417
18:00+18в35435 0.0 10261149
21:00+11вюв38713 0.0 1026152
12 мая, ср
ср1200:00+9вюв28800 0.0 1026142
03:00+8в26860 0.0 102699
06:00+9всв27875 0.0 1025158
09:00+16всв49650 0.0 1023597
12:00+18вюв6116698 0.1 10221391
15:00+16юв5107297 0.8 10221166
18:00+15вюв4869100 0.1 10211188
21:00+12в388882 0.1 1020332
13 мая, чт
чт1300:00+11в389891 0.1 1019301
03:00+11в399885 0.1 1018399
06:00+11вюв41190100 0.6 1017693
09:00+13юв61181100 1.3 10161273
12:00+11юв411917 2.8 1016974
15:00+15ююв496570 3.1 10151721
18:00+16ююв496072 0.3 10151664
21:00+11юв238298 0.3 101655